www.pogodaiklimat.ru

Погода и климат >> Архив погоды >> Россия >> Вологодская область >> Череповец


АРХИВ ПОГОДЫ в Череповце

Время (UTC), дата Ветер
(напр.,м/с)
 
Видим.   Явления Облачность Т
(С)
Тd
(С)
f
(%)
Тe
(С)
Тes
(С)
Комфортность P
(гПа)
Po
(гПа)
Тmin
(С)
Tmax
(С)
R
(мм)
R24
(мм)
S
(см)
00 12.09 штиль 0 4000 м местами туман поземный 6/0
[Ac trans Ci fib]
+12.1 +11.9 99 +11 +11 тепло 1024.1 1009.8
03 12.09 штиль 0 4000 м местами туман поземный 10/4 600 м
[Cb calv Ac trans Ci fib]
+11.4 +11.0 97 +11 +11 тепло 1024.1 1009.8 +10.8
06 12.09 ЮЗ 3 10 км 4/3 1000 м
[Sc Ci fib]
+16.8 +11.9 73 +17 +18 тепло 1024.0 1010.0
09 12.09 ЮЗ 5 10 км 4/3 1000 м
[Cu med, cong Ac trans Ci fib]
+20.5 +10.2 52 +22 +24 комфорт 1023.1 1009.2
12 12.09 З 5
{11}
10 км 8/3 600 м
[Cu med, cong Ac trans Ci fib]
+21.6 +8.6 43 +23 +24 комфорт 1021.6 1007.8
15 12.09 Ю 3 10 км 9/4 600 м
[Cb calv Ac trans]
+19.4 +13.7 70 +21 +21 комфорт 1020.0 1006.2 +22.2
18 12.09 штиль 0 10 км 6/4 600 м
[Cb calv Ac trans]
+14.6 +13.3 92 +14 +14 тепло 1018.4 1004.4
21 12.09 штиль 0 10 км в посл. час гроза {ливн. осадки} 10/4 600 м
[Cb calv Ac trans]
+14.7 +14.2 97 +14 +14 тепло 1017.4 1003.4
00 13.09 ЮЗ 2 9000 м дымка {гроза, ливн. осадки} 6/3 600 м
[Sc Ac trans]
+14.3 +12.3 88 +14 +14 тепло 1016.9 1002.8
03 13.09 ЮЗ 4 10 км 9/4 600 м
[Sc Ac trans]
+14.0 +12.0 88 +12 +12 тепло 1015.5 1001.5 +12.5 0.5
06 13.09 ЮЗ 4 10 км 8/4 300 м
[St Ac trans Ci fib]
+15.0 +12.1 83 +14 +15 тепло 1015.3 1001.4
09 13.09 З 4
{10}
10 км 9/8 750 м
[Cb calv Ac trans Ci fib]
+16.7 +11.2 70 +16 +17 тепло 1014.0 1000.2
12 13.09 З 6
{10}
10 км 8/4 600 м
[Cu med, cong Ac trans Ci fib]
+18.3 +8.9 54 +18 +19 тепло 1012.7 998.9
15 13.09 З 4 10 км 9/4 1000 м
[Sc diur, vesp Ac trans Ci fib]
+16.4 +8.1 58 +16 +16 тепло 1011.5 997.6 +18.5
18 13.09 ЮЗ 2 10 км в посл. час ливневой дождь 10/6 930 м
[Cb calv Ac trans]
+14.3 +9.4 72 +14 +14 тепло 1009.4 995.5
21 13.09 Ю 3
{11}
7000 м слаб. ливневой дождь 10/8 420 м
[Cb calv Ac trans]
+12.9 +11.6 92 +11 +11 тепло 1006.0 992.1
00 14.09 Ю 3 10 км в посл. час ливневой дождь 10/8 210 м
[Cb calv Ac trans]
+12.1 +11.5 96 +10 +10 тепло 1001.6 987.6
03 14.09 З 9-14
{14}
5000 м слаб. ливневой дождь 10/10 270 м
[Cb calv]
+12.0 +11.0 94 +8 +8 по сезону 997.4 983.5 +11.8 10
06 14.09 СЗ 4
{15}
2500 м ливневой дождь 10/10 240 м
[Cb calv]
+9.6 +8.8 95 +7 +7 по сезону 1002.1 988.0 +9.6
09 14.09 З 9-12
{12}
10 км {ливн. осадки} 8/8 840 м
[Cb calv Ci fib]
+12.6 +6.5 66 +10 +10 по сезону 1005.8 991.8
12 14.09 З 7-10
{12}
6000 м слаб. ливневой дождь 9/9 420 м
[Cb calv]
+10.7 +7.6 81 +7 +7 холодно 1008.2 994.1
15 14.09 З 2
{10}
10 км {ливн. осадки} 4/4 600 м
[Cb calv]
+11.0 +7.3 78 +10 +10 по сезону 1008.7 994.7 +13.5 7
18 14.09 З 2 10 км {ливн. осадки} 3/3 600 м
[Sc]
+7.8 +5.1 83 +6 +6 по сезону 1009.7 995.5
21 14.09 З 2 10 км 4/4 600 м
[Sc]
+5.8 +4.2 89 +3 +3 прохладно 1009.9 995.6
00 15.09 З 2 10 км 1/0
[Ci fib]
+4.7 +3.7 93 +2 +2 прохладно 1009.8 995.4
03 15.09 З 2 10 км 1/1 600 м
[Sc]
+3.9 +3.4 97 +1 +1 прохладно 1010.3 995.9 +3.7
06 15.09 З 4 10 км 6/4 300 м
[St Ci fib]
+7.3 +4.6 83 +4 +5 прохладно 1010.3 996.1
09 15.09 З 5
{10}
10 км 8/6 800 м
[Sc Ci fib]
+10.5 +4.8 68 +8 +9 по сезону 1009.2 995.1
12 15.09 З 5
{10}
10 км 9/6 800 м
[Cb calv Ac trans Ci fib]
+11.3 +3.4 58 +9 +9 прохладно 1007.1 993.1
15 15.09 ЮЗ 4
{10}
10 км 10/6 1000 м
[Cb calv Ac trans]
+9.7 +4.3 69 +7 +7 по сезону 1003.8 989.7 +12.2
18 15.09 Ю 9-12
{12}
6000 м слаб. ливневой дождь 10/10 300 м
[Cb calv]
+7.6 +6.3 91 +2 +2 прохладно 999.2 985.1
21 15.09 ЮЗ 7-10
{12}
10 км слаб. ливневой дождь 10/10 240 м
[Cb calv]
+7.9 +7.0 94 +3 +3 прохладно 993.1 979.1
00 16.09 ЮЗ 7-10
{13}
10 км в посл. час ливневой дождь 10/10 180 м
[Cb calv]
+8.9 +8.1 95 +5 +5 по сезону 990.3 976.4
03 16.09 З 5
{10}
10 км 10/10 270 м
[Sc]
+9.5 +8.3 92 +6 +6 по сезону 989.7 975.8 +7.3 7
06 16.09 З 5 10 км {ливн. осадки} 9/8 420 м
[Cb calv Ac trans]
+10.1 +8.5 90 +7 +7 по сезону 989.2 975.3
09 16.09 З 4
{11}
10 км слаб. ливневой дождь 10/10 330 м
[Cb calv]
+10.2 +8.4 89 +7 +7 по сезону 988.8 974.9
12 16.09 З 4
{12}
10 км в посл. час ливневой дождь 9/8 500 м
[Cb calv Ac trans Ci fib]
+11.7 +8.3 80 +10 +10 по сезону 988.5 974.7
15 16.09 ЮЗ 3
{10}
10 км в посл. час ливневой дождь 9/8 800 м
[Cb calv Ac trans Ci fib]
+10.1 +7.2 82 +8 +8 по сезону 988.4 974.5 +13.2 5
18 16.09 ЮЗ 4 10 км {ливн. осадки} 9/4 1000 м
[Sc Ac trans Ci fib]
+9.6 +7.1 84 +7 +7 по сезону 987.6 973.7
21 16.09 З 3
{11}
5000 м слаб. ливневой дождь 10/8 150 м
[Cb calv Ac trans]
+7.7 +7.1 96 +5 +5 по сезону 986.9 972.9
00 17.09 З 2 5000 м слаб. ливневой дождь 10/10 240 м
[Cb calv]
+8.0 +7.6 97 +6 +6 по сезону 987.0 973.0
03 17.09 З 3 3300 м слаб. ливневой дождь 10/8 240 м
[Cb calv Ac trans]
+7.5 +6.6 94 +4 +4 по сезону 988.0 974.0 +7.5 2
06 17.09 З 5 4600 м слаб. ливневой дождь 10/10 210 м
[Cb calv]
+7.5 +6.9 96 +3 +3 прохладно 989.4 975.4 +7.3
09 17.09 З 3 10 км {ливн. осадки} 10/9 420 м
[Cb calv Ac trans]
+9.6 +5.9 78 +7 +8 по сезону 990.6 976.7
12 17.09 З 2 4600 м слаб. ливневой дождь 10/8 240 м
[Cb calv Ac trans]
+9.2 +7.7 90 +7 +8 прохладно 991.5 977.6
15 17.09 З 2 4000 м ливневой дождь 10/10 180 м
[Cb calv]
+8.4 +7.6 95 +6 +6 прохладно 992.0 978.0 +10.6 5
18 17.09 З 2 10 км в посл. час ливневой дождь 10/8 180 м
[Cb calv Ac trans]
+7.8 +7.6 99 +6 +6 по сезону 993.1 979.1
21 17.09 З 2 10 км 10/10 150 м
[Sc]
+6.8 +6.4 97 +4 +4 по сезону 993.5 979.4
00 18.09 З 1 5000 м дымка 10/10 90 м
[St]
+6.8 +6.6 99 +6 +6 по сезону 993.9 979.8
03 18.09 З 2 10 км 10/10 120 м
[Sc]
+6.8 +6.4 97 +4 +4 по сезону 994.5 980.4 +6.6 2
06 18.09 СЗ 1 10 км слаб. ливневой дождь 10/8 330 м
[Cb calv Ac trans]
+7.7 +6.8 94 +7 +7 по сезону 995.3 981.3
09 18.09 С 3 10 км в посл. час ливневой дождь 8/6 420 м
[Cb calv Ac trans]
+10.3 +6.9 79 +8 +10 по сезону 996.2 982.3
12 18.09 С 2 10 км в посл. час ливневой дождь 9/6 800 м
[Cb calv Ac trans]
+10.5 +5.5 71 +9 +10 прохладно 997.4 983.4
15 18.09 штиль 0 10 км {ливн. осадки} 8/6 700 м
[Cb calv Ac trans Ci fib]
+8.5 +7.4 93 +8 +8 по сезону 998.9 984.8 +12.3 2
18 18.09 С 1 10 км {ливн. осадки} 8/4 600 м
[Cb calv Ac trans]
+5.6 +5.4 99 +4 +4 по сезону 1000.1 985.9
21 18.09 С 3 10 км в посл. час ливневой дождь 10/6 800 м
[Cb calv Ac trans]
+6.7 +6.3 97 +3 +3 по сезону 1001.0 986.8

 

Местоположение метеостанции Череповец (Вологодская область, Россия): широта 59.25 долгота 37.97 высота над уровнем моря 117 м.

В архиве по умолчанию представлена погода в Череповце за последнюю неделю. Архивные данные за месяц целиком и за предыдущие месяцы, начиная с января 2011 года, Вы можете получить, выбрав интересующий диапазон дат из раскрывающегося списка и нажав кнопку "Ввод!".


*Определитесь, кто Вы:
робот инопланетянин человек

Внимание! Время в таблицах - всемирное. Для получения местного времени необходимо прибавить поправку, которая равна 3 ч.

Смотрите также архив погоды в соседних городах и на ближайших метеорологических станциях:

Погода в Яршево (Вологодская область, Россия) (85 км)
Погода в Коробово (Вологодская область, Россия) (86 км)
Погода в Белозерске (Вологодская область, Россия) (87 км)
Погода в Устюжне (Вологодская область, Россия) (99 км)
Погода в Владычном (Ярославская область, Россия) (99 км)
Погода в Брейтово (Ярославская область, Россия) (106 км)
Погода в Пошехонье (Ярославская область, Россия) (109 км)
Погода в Вологде (Вологодская область, Россия) (112 км)
Погода в Бабаево (Вологодская область, Россия) (117 км)
Погода в Рыбинске (Ярославская область, Россия) (134 км)

Пояснения к столбцам:

Ветер - указаны скорость ветра в м/с - средняя за 10 мин, порывы в срок и между сроками (в фигурных скобках) и направление, откуда дует ветер: С - северный, СВ - северо-восточный, В - восточный, ЮВ - юго-восточный, Ю - южный, ЮЗ - юго-западный, З - западный, СЗ - северо-западный.
Видимость - горизонтальная дальность видимости в метрах или километрах. При видимости от 1 до 10 км при отсутствии осадков обычно наблюдается дымка, при ухудшении видимости до 1 км и менее - туман. В сухую погоду видимость может ухудшаться дымом, пылью или мглою.
Явления - указаны атмосферные явления, наблюдавшиеся в срок или в последний час перед сроком; фигурными скобками обозначены явления, наблюдавшиеся между сроками (за 1-3 часа до срока); квадратными скобками обозначены град или гололедные отложения с указанием их диаметра в мм.
Облачность - указаны через наклонную черту общая и нижняя облачность в баллах и высота нижней границы облаков в метрах; квадратными скобками обозначены формы облаков: Ci - перистые, Cs - перисто-слоистые, Cc - перисто-кучевые, Ac - высококучевые, As - высокослоистые, Sc - слоисто-кучевые, Ns - слоисто-дождевые, Cu - кучевые, Cb - кучево-дождевые. Подробнее классификацию облаков см. в Атласе облаков (PDF).
T - Температура воздуха - температура, измеренная на высоте 2 м над землей.
Td - Температура точки росы - температура, при понижении до которой содержащийся в воздухе водяной пар достигнет насыщения.
f - Относительная влажность воздуха - влажноcть воздуха, измеренная на высоте 2 м над землей.
Te - Эффективная температура - температура, которую ощущает одетый по сезону человек в тени. Характеристика душности погоды. При расчете учитывается влияние влажности воздуха и скорости ветра на теплоощущения человека.
Tes - Эффективная температура на солнце - температура, которую ощущает человек, с поправкой на солнечный нагрев. Характеристика знойности погоды. Зависит от высоты солнца над горизонтом, облачности и скорости ветра. Ночью, в пасмурную погоду, а также при ветре 12 м/с и более поправка равна нулю.
P - Атмосферное давление - приведенное к уровню моря атмосферное давление.
Po - Атмосферное давление - измеренное на уровне метеостанции атмосферное давление.
Tmin - Минимальная температура - минимум температуры воздуха на высоте 2 м над землей.
Tmax - Максимальная температура - максимум температуры воздуха на высоте 2 м над землей.
R - Количество осадков - Количество выпавших осадков за период времени, мм. При наведении курсора мыши на число - период времени, за который выпало указанное количество осадков.
R24 - Количество осадков - Количество выпавших осадков за 24 часа, мм.
S - Снежный покров - Высота снежного покрова, см. При наведении курсора мыши на число - состояние снежного покрова и степень покрытия местности в баллах.